Find Starlink 11241

NORAD ID: 60936 Int'l Des: 2024-155 Owner: SPXS Country: US Constellation: starlink operational
LEOCIRCULAR

实时位置

正在加载3D地球...

关于 Starlink 11241

正在加载描述...

即将过境

Passes for default location (London). Set your location on the main map for personalized predictions.

高度历史

Loading altitude history...

两行轨道根数

1 60936U 24155N 26128.18621010 .00002331 00000-0 24102-4 0 9991
2 60936 53.1592 48.1953 0000830 133.7668 226.3418 15.69699666 97742
Epoch: May 8, 2026 • Age: 5 hours

当前状态

高度 360.8 km
速度 7.69 km/s
星下点 2.04°N, 46.6°E
发射日期 Aug 31, 2024
运行时间 1.6 years
类型 internet

技术详情

分类 Payload
质量 960.00 kg
干质量 910.00 kg
总质量 960.00 kg
长度 0.30 m
直径 4.10 m
跨度 29.00 m
形状 Box + pan
制造商 SPXS
平台类型 Starlink V2MD
阶段状态 In Orbit
所有者/国家 SPXS/US

Most Searched